Regional Weather Roundup
Issued by NWS

Home | Current Version | Previous Version | Graphics & Text | Print | Product List | Glossary On
Versions: 1 2 3 4 5 6 7 8 9 10 11 12 13 14 15 16 17 18 19 20 21 22 23 24 25 26 27 28 29 30 31 32 33 34 35 36 37 38 39 40 41 42 43 44 45 46 47 48 49 50
979
ASUS44 KMEG 281610
RWRTN
TENNESSEE HOURLY STATE WEATHER ROUNDUP
NATIONAL WEATHER SERVICE MEMPHIS TN
1100 AM CDT THU JUL 28 2016

TNZ002-004-019-021-049-052-054-088>092-281700-
WEST TENNESSEE

CITY           SKY/WX    TMP DP  RH WIND       PRES   REMARKS
MEMPHIS INTL   CLOUDY    82  75  79 SW7       29.96R
NWS MEMPHIS      N/A     80 N/A N/A MISG        N/A
JACKSON        CLOUDY    81  77  88 W8        29.94F
DYERSBURG      PTSUNNY   81  73  78 CALM      29.94S
UNION CITY     PTSUNNY   82  77  83 NW7       29.92S HX  91
PARIS          CLOUDY    73  72  94 CALM      29.95R
LEXINGTON      CLOUDY    79  75  89 W7        29.94R
$$

TNZ008-025-027-028-033-062-065-066-281700-
NORTH MIDDLE TENNESSEE

CITY           SKY/WX    TMP DP  RH WIND       PRES   REMARKS
NASHVILLE      LGT RAIN  76  74  93 S5        29.93S FOG
CLARKSVILLE    CLOUDY    77  72  84 N6        29.94R
SMYRNA         RAIN      76  75  96 S5        29.93S FOG
CROSSVILLE     CLOUDY    78  68  71 VRB5      30.01F
$$

TNZ061-075-076-078-094-096-097-281700-
SOUTH MIDDLE TENNESSEE

CITY           SKY/WX    TMP DP  RH WIND       PRES   REMARKS
FAYETTEVILLE   CLOUDY    75  73  94 SW8       29.97F FOG
TULLAHOMA      CLOUDY    73  72  94 S10       29.98S
WINCHESTER     CLOUDY    77  72  83 SW8       29.99S
MCMINNVILLE    CLOUDY    75  75 100 VRB5      29.97S
COLUMBIA       PTSUNNY  N/A N/A N/A SW9       29.92R
SHELBYVILLE    CLOUDY    79  75  89 S13       29.96S
$$

TNZ017-018-042-046-047-281700-
NORTHEAST TENNESSEE

CITY           SKY/WX    TMP DP  RH WIND       PRES   REMARKS
TRI CITIES     CLOUDY    81  70  69 S6        29.99F
ELIZABETHTON   PTSUNNY   81  72  74 VRB3      29.99F
$$

TNZ012-013-036-069-073-074-281700-
CENTRAL EAST TENNESSEE

CITY           SKY/WX    TMP DP  RH WIND       PRES   REMARKS
KNOXVILLE      PTSUNNY   84  68  58 SW22G30   29.97F
OAK RIDGE      PTSUNNY   85  70  60 VRB5      29.98S
GATLINBURG     CLOUDY    84  68  58 W9        29.96F
MORRISTOWN     CLOUDY    84  68  58 W14       29.97F
$$

TNZ083-085-099-281700-
SOUTHEAST TENNESSEE

CITY           SKY/WX    TMP DP  RH WIND       PRES   REMARKS
CHATTANOOGA    PTSUNNY   82  68  62 S15       29.99F
$$

SKY/WX REPORTED AS FAIR MEANS FEW OR NO CLOUDS BELOW
12 THOUSAND FEET.





USA.gov is the U.S. government's official web portal to all federal, state and local government web resources and services.